Location: Baix
(44.7118°N, 4.7648°E)
Time: 06:26:54
(UTC+00:00)

Vanguard 1 - Pass Details

Date: 26 November 2020
Orbit: 648 x 3834 km, 34.3° (Epoch: 21 January)

Event Time Altitude Azimuth Distance (km) Brightness Sun altitude
Rises 12:13:58 0° 273° (W) 6,015 14.2 23.4°
Reaches altitude 10° 12:18:48 10° 260° (W) 5,485 14.2 23.2°
Maximum altitude 12:30:40 23° 217° (SW) 5,367 15.5 22.7°
Drops below altitude 10° 12:45:36 10° 176° (S) 6,911 15.8 21.9°
Sets 12:53:09 0° 164° (SSE) 7,937 15.5 21.4°
